STARLINK-36355

Last updated on Sun Apr 12 2026 00:02:08 GMT+0000 (Coordinated Universal Time)

1 68298U 26057E 26101.09536462 .00343757 00000+0 17188-2 0 9993 2 68298 97.2839 225.1152 0001552 75.4867 284.6573 15.80902025 3382
UTC large
Height (km)
Speed (km/s)
/
Latitude / Longitude
Inclination (degrees)
Orbital Period (minutes)
Azimuth
Elevation
Range (km)
Doppler Factor

Next 0 passes for location: London (51.5072 / 0.1276)

Sorry there are no passes over London.
STARLINK-36355